Regional Weather Roundup
Issued by NWS Jackson, KY

Home | Current Version | Previous Version | Text Only | Print | Product List | Glossary Off
Versions: 1 2 3 4 5 6 7 8 9 10 11 12 13 14 15 16 17 18 19 20 21 22 23 24 25 26 27 28 29 30 31 32 33 34 35 36 37 38 39 40 41 42 43 44 45 46 47 48 49 50

000
ASUS43 KJKL 200805
RWRJKL

EAST KENTUCKY HOURLY WEATHER ROUNDUP
NATIONAL WEATHER SERVICE JACKSON KY
400 AM EDT MON OCT 20 2014

NOTE: "FAIR" INDICATES FEW OR NO CLOUDS BELOW 12,000 FEET WITH
NO SIGNIFICANT WEATHER AND/OR OBSTRUCTIONS TO VISIBILITY.

* THESE REPORTS ARE NOT UNDER NWS QUALITY CONTROL AND MAY NOT
  REPORT WEATHER SUCH AS PRECIPITATION AND FOG.

KYZ079-080-083-085-087-088-110-112-115-119-120-200900
...EASTERN KENTUCKY...

CITY           SKY/WX    TMP DP  RH WIND       PRES   REMARKS
JACKSON        MOCLDY    43  39  86 CALM      30.05F
LONDON         MOCLDY    44  40  85 CALM      30.07S
SOMERSET*      CLOUDY    41  41 100 CALM      30.08F
MONTICELLO*    PTCLDY    43  42  96 CALM      30.08F FOG
WILLIAMSBURG*  CLEAR     45  45 100 CALM      30.07S
MIDDLESBORO*   CLOUDY    42  42 100 CALM      30.10S FOG
HARLAN APT*    PTSUNNY   41  41 100 CALM      30.09S
BLACK MTN*       N/A     48  23  37 SW12        N/A
PIKEVILLE APT* CLEAR     43  39  87 SE3       30.06S
BIG SANDY*     PTSUNNY   41  40  98 CALM      30.06F
MOREHEAD APT*  PTSUNNY   41  41 100 S3        30.07F
$$

KYZ035-036-041-042-044-050-067-078-099-200900
...CENTRAL KENTUCKY...

CITY           SKY/WX    TMP DP  RH WIND       PRES   REMARKS
MT STERLING*   MOCLDY    41  39  93 CALM      30.07S
FLEMING/MASON* CLOUDY    43  40  89 CALM      30.06S
DANVILLE*      MOCLDY    39  39 100 CALM      30.07S
RICHMOND*      MOCLDY    41  37  87 W3        30.06S
LEXINGTON      CLOUDY    46  40  79 S6        30.05F
FRANKFORT      CLOUDY    44  41  89 CALM      30.05S
$$

KYZ091>093-OHZ055-061-077-WVZ005-015-034-035-042-200900
...SOUTHERN OHIO/WEST VIRGINIA...

CITY           SKY/WX    TMP DP  RH WIND       PRES   REMARKS
COVINGTON      CLOUDY    46  41  82 SW3       30.04S
COLUMBUS       CLOUDY    44  38  79 CALM      30.03S
DAYTON         CLOUDY    47  40  76 S8        30.02F
WILMINGTON     CLOUDY    45  40  82 S3        30.03S
HUNTINGTON     MOCLDY    39  38  96 CALM      30.06S
CHARLESTON     MOCLDY    38  37  97 CALM      30.07S
PINEVILLE*     MOCLDY    38  38 100 MISG      30.12S FOG
BECKLEY        PTCLDY    39  34  82 SE3       30.06S
BLUEFIELD      PTCLDY    46  32  58 CALM      30.07F
$$

VAZ002-007-008-TNZ017-027-036-066-071-200900
...SOUTHWEST VIRGINIA/EAST TENNESSEE...

CITY           SKY/WX    TMP DP  RH WIND       PRES   REMARKS
WISE*          MOCLDY    43  36  75 S8        30.09S
JONESVILLE*    PTSUNNY   39  39 100 CALM      30.12S
ABINGDON*      PTCLDY    43  39  86 CALM      30.09S
BRISTOL        MOCLDY    39  38  96 CALM      30.10S
KNOXVILLE      MOCLDY    45  43  93 E5        30.08F
OAK RIDGE      MOCLDY    46  44  93 CALM      30.11S
CROSSVILLE     PTCLDY    47  42  83 CALM      30.07F
NASHVILLE      CLOUDY    47  45  93 S3        30.07F
$$

...KEY TO REMARKS...
VSB - VISIBILITY IN MILES
WCI - WIND CHILL INDEX
HX  - HEAT INDEX

$$


USA.gov is the U.S. government's official web portal to all federal, state and local government web resources and services.